Wetterdaten: Jahr 2023
Datum Temp. A. Feuchte A. Luftdruck Regen Wind Richtung Sonnenschein UV Solar Windben
01.01.2023 13,0 C 75 % 1014,4 hPa 0,8 l/m 7,0 km/h S-SW 0,00 h 0,5 UV-I 37 W/m 19,0 km/h
02.01.2023 10,4 C 82 % 1018,3 hPa 1,6 l/m 9,9 km/h SW 0,00 h 0,0 UV-I 31 W/m 20,6 km/h
03.01.2023 7,6 C 78 % 1026,2 hPa 0,0 l/m 5,2 km/h SW 1,25 h 0,6 UV-I 77 W/m 13,4 km/h
04.01.2023 10,9 C 85 % 1013,5 hPa 8,8 l/m 18,1 km/h S-SW 0,00 h 0,0 UV-I 27 W/m 31,5 km/h
05.01.2023 9,4 C 89 % 1018,6 hPa 3,6 l/m 8,7 km/h W-SW 0,00 h 0,5 UV-I 44 W/m 16,1 km/h
06.01.2023 10,3 C 85 % 1017,4 hPa 0,2 l/m 6,3 km/h SW 0,00 h 0,6 UV-I 40 W/m 14,1 km/h
07.01.2023 9,8 C 78 % 1010,0 hPa 0,0 l/m 3,9 km/h SO 0,50 h 0,6 UV-I 59 W/m 14,2 km/h
08.01.2023 9,3 C 77 % 1000,1 hPa 1,4 l/m 6,4 km/h SO 1,92 h 0,7 UV-I 91 W/m 14,6 km/h
09.01.2023 6,5 C 85 % 1001,9 hPa 6,4 l/m 7,3 km/h SW 0,50 h 0,6 UV-I 68 W/m 17,8 km/h
10.01.2023 6,3 C 83 % 1015,1 hPa 0,8 l/m 5,5 km/h SW 0,25 h 0,6 UV-I 65 W/m 14,2 km/h
11.01.2023 9,0 C 82 % 1010,7 hPa 4,4 l/m 10,7 km/h S-SW 0,33 h 0,5 UV-I 43 W/m 23,8 km/h
12.01.2023 9,7 C 87 % 1005,8 hPa 7,8 l/m 14,6 km/h S-SW 0,00 h 0,0 UV-I 28 W/m 32,3 km/h
13.01.2023 7,9 C 80 % 1008,3 hPa 4,6 l/m 12,8 km/h SW 0,08 h 0,5 UV-I 47 W/m 26,3 km/h
14.01.2023 9,3 C 82 % 1002,4 hPa 8,0 l/m 12,6 km/h SW 0,00 h 0,0 UV-I 22 W/m 27,0 km/h
15.01.2023 6,3 C 74 % 1000,1 hPa 5,6 l/m 12,0 km/h SW 1,33 h 0,7 UV-I 84 W/m 28,7 km/h
16.01.2023 4,4 C 83 % 982,0 hPa 0,0 l/m 7,7 km/h O-SO 1,25 h 0,7 UV-I 79 W/m 17,4 km/h
17.01.2023 0,6 C 86 % 988,2 hPa 2,8 l/m 3,8 km/h W-SW 2,75 h 0,8 UV-I 106 W/m 8,1 km/h
18.01.2023 0,1 C 80 % 997,9 hPa 0,2 l/m 1,4 km/h S 2,42 h 0,7 UV-I 104 W/m 7,8 km/h
19.01.2023 1,4 C 88 % 1005,8 hPa 4,8 l/m 5,2 km/h SW 0,00 h 0,5 UV-I 29 W/m 13,4 km/h
20.01.2023 0,3 C 85 % 1018,5 hPa 0,0 l/m 1,6 km/h O-NO 0,58 h 0,7 UV-I 75 W/m 3,3 km/h
21.01.2023 0,3 C 84 % 1030,1 hPa 0,0 l/m 2,3 km/h W-NW 0,00 h 0,7 UV-I 56 W/m 10,6 km/h
22.01.2023 1,3 C 92 % 1031,6 hPa 0,8 l/m 2,4 km/h NO 0,00 h 0,0 UV-I 25 W/m 4,9 km/h
23.01.2023 2,5 C 88 % 1037,2 hPa 0,0 l/m 2,5 km/h NO 0,00 h 0,6 UV-I 51 W/m 9,8 km/h
24.01.2023 1,5 C 83 % 1038,4 hPa 0,0 l/m 3,4 km/h O-NO 0,00 h 0,5 UV-I 43 W/m 11,8 km/h
25.01.2023 -1,4 C 94 % 1029,6 hPa 0,0 l/m 3,7 km/h W-SW 0,00 h 0,0 UV-I 25 W/m 9,0 km/h
26.01.2023 -0,4 C 95 % 1023,0 hPa 0,4 l/m 2,3 km/h W-SW 0,00 h 0,0 UV-I 30 W/m 3,7 km/h
27.01.2023 2,8 C 87 % 1026,5 hPa 0,0 l/m 3,2 km/h NO 0,00 h 0,6 UV-I 48 W/m 9,0 km/h
28.01.2023 -0,2 C 79 % 1029,8 hPa 0,0 l/m 0,5 km/h W 1,50 h 0,8 UV-I 81 W/m 0,5 km/h
29.01.2023 1,2 C 83 % 1023,7 hPa 0,0 l/m 4,0 km/h SW 0,00 h 0,6 UV-I 46 W/m 8,9 km/h
30.01.2023 5,4 C 85 % 1016,7 hPa 4,4 l/m 15,7 km/h W-SW 0,75 h 0,8 UV-I 77 W/m 31,9 km/h
31.01.2023 5,5 C 86 % 1019,0 hPa 1,4 l/m 13,9 km/h W-SW 0,17 h 0,6 UV-I 40 W/m 26,6 km/h
01.02.2023 5,0 C 87 % 1015,6 hPa 8,6 l/m 16,3 km/h W-SW 0,00 h 0,6 UV-I 34 W/m 27,9 km/h
02.02.2023 5,6 C 94 % 1022,3 hPa 17,8 l/m 8,1 km/h W-SW 0,00 h 0,0 UV-I 29 W/m 15,8 km/h
03.02.2023 7,4 C 85 % 1024,0 hPa 4,6 l/m 16,3 km/h W-SW 0,00 h 0,5 UV-I 21 W/m 27,4 km/h
04.02.2023 4,3 C 80 % 1036,6 hPa 0,0 l/m 4,0 km/h O 5,58 h 1,1 UV-I 177 W/m 8,9 km/h
05.02.2023 4,0 C 92 % 1037,1 hPa 4,4 l/m 4,3 km/h W-NW 0,00 h 0,6 UV-I 42 W/m 10,6 km/h
06.02.2023 1,4 C 89 % 1040,5 hPa 0,0 l/m 2,5 km/h W 0,25 h 0,7 UV-I 84 W/m 7,3 km/h
07.02.2023 0,9 C 70 % 1040,1 hPa 0,0 l/m 2,0 km/h O-NO 7,42 h 1,2 UV-I 215 W/m 4,1 km/h
08.02.2023 2,2 C 56 % 1036,3 hPa 0,0 l/m 3,0 km/h O-NO 7,42 h 1,2 UV-I 219 W/m 10,5 km/h
09.02.2023 2,2 C 60 % 1033,0 hPa 0,0 l/m 3,3 km/h O 7,08 h 1,2 UV-I 182 W/m 10,9 km/h
10.02.2023 5,1 C 76 % 1035,5 hPa 0,0 l/m 8,2 km/h SW 4,67 h 1,2 UV-I 177 W/m 16,2 km/h
11.02.2023 6,8 C 90 % 1034,4 hPa 0,0 l/m 11,1 km/h W-SW 0,00 h 0,5 UV-I 31 W/m 18,6 km/h
12.02.2023 7,6 C 90 % 1038,4 hPa 0,0 l/m 3,1 km/h W-SW 0,00 h 0,8 UV-I 69 W/m 6,1 km/h
13.02.2023 7,7 C 84 % 1036,4 hPa 0,0 l/m 3,0 km/h O 4,58 h 1,3 UV-I 179 W/m 7,7 km/h
14.02.2023 7,4 C 71 % 1031,9 hPa 0,0 l/m 3,7 km/h O 7,83 h 1,5 UV-I 236 W/m 10,6 km/h
15.02.2023 5,4 C 76 % 1025,6 hPa 0,0 l/m 6,5 km/h O 7,83 h 1,4 UV-I 232 W/m 15,4 km/h
16.02.2023 8,7 C 72 % 1022,1 hPa 0,0 l/m 8,6 km/h O 2,17 h 1,0 UV-I 132 W/m 18,6 km/h
17.02.2023 10,4 C 86 % 1018,2 hPa 2,0 l/m 14,2 km/h W-SW 0,50 h 1,0 UV-I 61 W/m 23,0 km/h
18.02.2023 9,7 C 92 % 1016,9 hPa 2,4 l/m 13,8 km/h W-SW 0,00 h 0,5 UV-I 33 W/m 25,8 km/h
19.02.2023 7,1 C 91 % 1022,5 hPa 10,2 l/m 6,7 km/h W-SW 0,67 h 1,1 UV-I 98 W/m 11,8 km/h
20.02.2023 7,4 C 89 % 1019,9 hPa 0,0 l/m 15,7 km/h SW 0,50 h 0,8 UV-I 78 W/m 28,3 km/h
21.02.2023 8,0 C 95 % 1017,9 hPa 0,0 l/m 4,7 km/h W-SW 0,00 h 0,6 UV-I 44 W/m 9,8 km/h
22.02.2023 10,8 C 79 % 1011,7 hPa 0,0 l/m 3,9 km/h O 6,75 h 1,3 UV-I 197 W/m 9,8 km/h
23.02.2023 7,4 C 95 % 1013,4 hPa 3,4 l/m 2,5 km/h W-SW 0,00 h 0,7 UV-I 46 W/m 6,4 km/h
24.02.2023 3,2 C 91 % 1004,3 hPa 5,8 l/m 10,7 km/h W-SW 0,00 h 0,6 UV-I 42 W/m 19,8 km/h
25.02.2023 1,8 C 74 % 1010,4 hPa 0,0 l/m 5,8 km/h W 1,50 h 1,0 UV-I 138 W/m 15,4 km/h
26.02.2023 1,5 C 68 % 1024,4 hPa 0,0 l/m 0,9 km/h W-NW 6,25 h 1,5 UV-I 250 W/m 3,7 km/h
27.02.2023 1,6 C 73 % 1029,7 hPa 0,0 l/m 2,2 km/h NO 5,67 h 1,5 UV-I 235 W/m 5,3 km/h
28.02.2023 1,4 C 67 % 1030,6 hPa 0,0 l/m 0,8 km/h NO 5,17 h 1,4 UV-I 215 W/m 2,9 km/h
01.03.2023 2,1 C 62 % 1026,8 hPa 0,0 l/m 2,5 km/h NO 8,83 h 1,6 UV-I 288 W/m 8,9 km/h
02.03.2023 3,2 C 71 % 1023,3 hPa 0,0 l/m 0,9 km/h O-NO 8,83 h 1,7 UV-I 292 W/m 5,3 km/h
03.03.2023 2,0 C 86 % 1024,7 hPa 0,0 l/m 4,2 km/h SW 2,42 h 1,2 UV-I 154 W/m 7,3 km/h
04.03.2023 4,4 C 80 % 1021,6 hPa 0,0 l/m 10,1 km/h W 0,08 h 0,7 UV-I 73 W/m 18,2 km/h
05.03.2023 3,5 C 83 % 1012,7 hPa 0,2 l/m 6,8 km/h W 1,17 h 1,1 UV-I 113 W/m 12,6 km/h
06.03.2023 2,7 C 85 % 1003,1 hPa 0,4 l/m 6,6 km/h SW 0,25 h 0,8 UV-I 79 W/m 15,4 km/h
07.03.2023 1,1 C 94 % 997,6 hPa 9,8 l/m 6,4 km/h SW 0,00 h 0,6 UV-I 54 W/m 15,0 km/h
08.03.2023 1,2 C 91 % 994,1 hPa 1,6 l/m 5,4 km/h O-NO 0,00 h 0,8 UV-I 79 W/m 12,2 km/h
09.03.2023 3,5 C 94 % 995,0 hPa 5,4 l/m 4,3 km/h O-NO 0,00 h 0,7 UV-I 69 W/m 8,6 km/h
10.03.2023 5,1 C 92 % 990,8 hPa 16,8 l/m 12,7 km/h SW 0,58 h 1,1 UV-I 113 W/m 21,0 km/h
11.03.2023 1,8 C 72 % 1010,7 hPa 0,0 l/m 3,0 km/h W 4,25 h 1,6 UV-I 241 W/m 6,6 km/h
12.03.2023 6,8 C 79 % 1008,4 hPa 0,4 l/m 10,5 km/h SW 0,00 h 0,6 UV-I 75 W/m 20,2 km/h
13.03.2023 13,5 C 74 % 994,7 hPa 0,4 l/m 9,1 km/h S-SW 1,42 h 1,4 UV-I 127 W/m 23,4 km/h
14.03.2023 5,4 C 77 % 1000,7 hPa 7,2 l/m 8,4 km/h SW 0,17 h 0,8 UV-I 93 W/m 16,2 km/h
15.03.2023 3,2 C 70 % 1018,3 hPa 1,8 l/m 6,1 km/h W-SW 5,00 h 1,9 UV-I 278 W/m 11,8 km/h
16.03.2023 6,8 C 62 % 1015,4 hPa 0,0 l/m 5,6 km/h O-SO 4,58 h 1,6 UV-I 231 W/m 14,6 km/h
17.03.2023 11,5 C 58 % 1008,6 hPa 0,0 l/m 4,9 km/h O 4,83 h 1,7 UV-I 231 W/m 9,4 km/h
18.03.2023 12,6 C 81 % 1011,3 hPa 4,8 l/m 1,9 km/h SW 5,58 h 2,0 UV-I 243 W/m 2,9 km/h
19.03.2023 12,2 C 80 % 1014,8 hPa 1,0 l/m 1,1 km/h W 1,58 h 1,5 UV-I 154 W/m 3,3 km/h
20.03.2023 8,5 C 80 % 1018,2 hPa 0,0 l/m 9,1 km/h W-SW 0,83 h 1,4 UV-I 158 W/m 16,2 km/h
21.03.2023 10,7 C 80 % 1013,2 hPa 0,6 l/m 5,0 km/h S-SW 0,08 h 0,9 UV-I 93 W/m 11,8 km/h
22.03.2023 12,9 C 66 % 1006,9 hPa 0,0 l/m 6,3 km/h S-SW 3,25 h 1,8 UV-I 204 W/m 15,0 km/h
23.03.2023 11,8 C 78 % 1004,4 hPa 1,2 l/m 8,1 km/h S-SW 0,33 h 1,1 UV-I 122 W/m 17,4 km/h
24.03.2023 11,1 C 76 % 1002,0 hPa 4,6 l/m 10,0 km/h SW 2,25 h 1,8 UV-I 211 W/m 19,0 km/h
25.03.2023 8,3 C 84 % 1004,0 hPa 3,2 l/m 12,5 km/h SW 1,58 h 1,3 UV-I 151 W/m 24,2 km/h
26.03.2023 6,7 C 86 % 1004,4 hPa 4,2 l/m 6,0 km/h SW 0,00 h 0,8 UV-I 81 W/m 12,6 km/h
27.03.2023 2,7 C 80 % 1019,6 hPa 0,4 l/m 8,5 km/h W-SW 3,58 h 1,8 UV-I 226 W/m 14,2 km/h
28.03.2023 5,3 C 65 % 1023,4 hPa 0,0 l/m 3,2 km/h W-SW 6,25 h 2,0 UV-I 266 W/m 10,6 km/h
29.03.2023 10,5 C 76 % 1013,2 hPa 0,0 l/m 3,5 km/h S-SW 0,33 h 1,1 UV-I 112 W/m 8,1 km/h
30.03.2023 13,0 C 75 % 1006,5 hPa 3,0 l/m 11,9 km/h SW 2,00 h 1,6 UV-I 177 W/m 23,0 km/h
31.03.2023 11,2 C 82 % 996,0 hPa 6,8 l/m 6,6 km/h S-SW 0,75 h 1,3 UV-I 123 W/m 15,4 km/h
01.04.2023 9,8 C 89 % 999,7 hPa 10,0 l/m 7,0 km/h S-SO 0,08 h 1,0 UV-I 114 W/m 17,4 km/h
02.04.2023 5,3 C 71 % 1023,5 hPa 0,2 l/m 4,7 km/h NO 2,00 h 1,5 UV-I 188 W/m 10,1 km/h
03.04.2023 3,8 C 60 % 1031,1 hPa 0,0 l/m 1,5 km/h NO 8,17 h 2,3 UV-I 344 W/m 4,9 km/h
04.04.2023 4,2 C 57 % 1027,2 hPa 0,0 l/m 0,6 km/h NO 10,25 h 2,5 UV-I 395 W/m 2,1 km/h
05.04.2023 5,6 C 53 % 1021,5 hPa 0,0 l/m 0,6 km/h O 10,67 h 2,5 UV-I 405 W/m 2,5 km/h
06.04.2023 9,8 C 48 % 1016,7 hPa 0,0 l/m 1,9 km/h O-SO 8,67 h 2,4 UV-I 362 W/m 11,0 km/h
07.04.2023 9,1 C 78 % 1018,0 hPa 1,8 l/m 2,5 km/h O 3,83 h 1,8 UV-I 238 W/m 6,6 km/h
08.04.2023 7,7 C 79 % 1025,0 hPa 0,0 l/m 3,3 km/h O-NO 0,00 h 1,3 UV-I 116 W/m 7,7 km/h
09.04.2023 8,8 C 68 % 1024,8 hPa 0,0 l/m 0,9 km/h O 5,92 h 2,0 UV-I 281 W/m 5,3 km/h
10.04.2023 13,6 C 49 % 1015,2 hPa 1,6 l/m 3,9 km/h O 8,83 h 2,5 UV-I 350 W/m 13,8 km/h
11.04.2023 9,4 C 63 % 1011,2 hPa 4,2 l/m 6,2 km/h W-SW 5,83 h 2,1 UV-I 284 W/m 13,8 km/h
12.04.2023 8,6 C 83 % 999,8 hPa 5,4 l/m 4,1 km/h O-SO 1,08 h 1,5 UV-I 138 W/m 12,1 km/h
13.04.2023 9,2 C 70 % 1004,6 hPa 0,0 l/m 2,6 km/h SW 4,33 h 1,9 UV-I 256 W/m 8,1 km/h
14.04.2023 10,3 C 62 % 1008,7 hPa 0,0 l/m 2,2 km/h NO 10,42 h 3,0 UV-I 415 W/m 9,2 km/h
15.04.2023 7,5 C 94 % 1012,9 hPa 1,6 l/m 3,5 km/h W 0,00 h 0,6 UV-I 40 W/m 6,9 km/h
16.04.2023 9,5 C 89 % 1022,0 hPa 0,0 l/m 4,2 km/h W 0,00 h 1,0 UV-I 93 W/m 8,9 km/h
17.04.2023 11,4 C 65 % 1024,9 hPa 0,0 l/m 3,0 km/h NO 5,33 h 2,3 UV-I 319 W/m 6,5 km/h
18.04.2023 10,3 C 74 % 1027,0 hPa 0,0 l/m 6,6 km/h NO 5,17 h 2,2 UV-I 275 W/m 14,6 km/h
19.04.2023 10,0 C 47 % 1023,9 hPa 0,0 l/m 4,5 km/h NO 8,58 h 2,7 UV-I 378 W/m 11,8 km/h
20.04.2023 8,2 C 74 % 1017,7 hPa 0,0 l/m 8,5 km/h NO 1,00 h 1,9 UV-I 182 W/m 18,6 km/h
21.04.2023 16,1 C 55 % 1011,3 hPa 0,0 l/m 9,2 km/h O-NO 8,08 h 2,8 UV-I 365 W/m 19,4 km/h
22.04.2023 17,4 C 62 % 1007,0 hPa 0,2 l/m 5,1 km/h O-SO 6,83 h 3,1 UV-I 341 W/m 12,1 km/h
23.04.2023 13,6 C 74 % 1004,4 hPa 0,6 l/m 3,4 km/h SW 4,83 h 2,5 UV-I 292 W/m 11,8 km/h
24.04.2023 8,6 C 82 % 1005,6 hPa 2,6 l/m 9,2 km/h SW 0,67 h 1,0 UV-I 107 W/m 19,0 km/h
25.04.2023 6,6 C 76 % 1013,8 hPa 0,6 l/m 4,3 km/h W-SW 3,83 h 2,2 UV-I 251 W/m 10,2 km/h
26.04.2023 6,3 C 66 % 1018,8 hPa 0,0 l/m 1,1 km/h W-SW 4,25 h 1,7 UV-I 221 W/m 5,8 km/h
27.04.2023 9,1 C 53 % 1019,3 hPa 0,0 l/m 0,6 km/h O-NO 10,42 h 3,1 UV-I 413 W/m 1,3 km/h
28.04.2023 13,0 C 78 % 1011,0 hPa 0,0 l/m 2,7 km/h O 0,92 h 1,4 UV-I 144 W/m 13,4 km/h
29.04.2023 11,8 C 76 % 1018,3 hPa 0,6 l/m 2,9 km/h W 0,00 h 1,3 UV-I 121 W/m 7,8 km/h
30.04.2023 12,0 C 57 % 1021,6 hPa 0,0 l/m 1,4 km/h O-NO 12,17 h 3,4 UV-I 442 W/m 7,7 km/h
01.05.2023 14,1 C 58 % 1014,9 hPa 0,0 l/m 6,1 km/h O 7,42 h 2,9 UV-I 353 W/m 14,2 km/h
02.05.2023 9,4 C 72 % 1024,8 hPa 0,4 l/m 2,6 km/h W-SW 1,17 h 1,2 UV-I 125 W/m 11,3 km/h
03.05.2023 10,8 C 59 % 1026,7 hPa 0,0 l/m 3,6 km/h NO 12,50 h 3,3 UV-I 445 W/m 10,6 km/h
04.05.2023 15,7 C 56 % 1019,0 hPa 0,0 l/m 4,3 km/h O 10,25 h 3,0 UV-I 378 W/m 13,8 km/h
05.05.2023 15,2 C 77 % 1015,8 hPa 14,4 l/m 1,0 km/h O 4,50 h 2,5 UV-I 249 W/m 5,7 km/h
06.05.2023 16,1 C 71 % 1016,9 hPa 0,2 l/m 0,6 km/h NO 7,25 h 3,1 UV-I 370 W/m 1,3 km/h
07.05.2023 14,2 C 76 % 1018,8 hPa 0,0 l/m 4,9 km/h O-NO 5,58 h 2,7 UV-I 315 W/m 20,2 km/h
08.05.2023 16,7 C 70 % 1020,5 hPa 0,0 l/m 3,6 km/h O 8,08 h 3,2 UV-I 382 W/m 11,4 km/h
09.05.2023 17,4 C 74 % 1011,0 hPa 0,0 l/m 6,3 km/h O 4,67 h 2,5 UV-I 262 W/m 18,2 km/h
10.05.2023 13,7 C 90 % 1011,1 hPa 9,0 l/m 3,8 km/h W-SW 1,42 h 2,2 UV-I 183 W/m 9,4 km/h
11.05.2023 13,3 C 94 % 1013,9 hPa 6,8 l/m 1,3 km/h W-NW 0,00 h 1,1 UV-I 109 W/m 3,3 km/h
12.05.2023 17,1 C 61 % 1017,4 hPa 0,4 l/m 1,9 km/h NO 7,17 h 2,5 UV-I 301 W/m 7,3 km/h
13.05.2023 17,5 C 53 % 1019,0 hPa 0,0 l/m 2,1 km/h O-NO 10,92 h 3,1 UV-I 414 W/m 4,5 km/h
14.05.2023 16,3 C 67 % 1015,6 hPa 1,8 l/m 0,6 km/h O-NO 5,33 h 2,3 UV-I 277 W/m 1,7 km/h
15.05.2023 15,0 C 70 % 1012,1 hPa 0,6 l/m 6,1 km/h W 7,58 h 2,4 UV-I 316 W/m 16,6 km/h
16.05.2023 11,1 C 66 % 1019,5 hPa 0,2 l/m 9,3 km/h W 4,33 h 2,4 UV-I 297 W/m 23,8 km/h
17.05.2023 10,3 C 63 % 1025,9 hPa 0,0 l/m 1,4 km/h W 5,75 h 2,5 UV-I 320 W/m 5,7 km/h
18.05.2023 12,0 C 60 % 1026,8 hPa 0,0 l/m 2,4 km/h NO 11,17 h 3,2 UV-I 417 W/m 8,1 km/h
19.05.2023 15,1 C 55 % 1024,1 hPa 0,0 l/m 1,8 km/h NO 8,50 h 3,1 UV-I 384 W/m 6,1 km/h
20.05.2023 14,9 C 71 % 1020,8 hPa 0,0 l/m 2,7 km/h NO 1,08 h 2,0 UV-I 197 W/m 8,9 km/h
21.05.2023 20,0 C 69 % 1014,8 hPa 0,0 l/m 1,1 km/h NO 5,33 h 2,5 UV-I 289 W/m 3,3 km/h
22.05.2023 19,8 C 76 % 1013,3 hPa 3,6 l/m 1,1 km/h W-SW 5,92 h 3,3 UV-I 331 W/m 6,9 km/h
23.05.2023 12,3 C 77 % 1019,4 hPa 0,0 l/m 5,6 km/h W-SW 1,92 h 1,6 UV-I 124 W/m 15,8 km/h
24.05.2023 10,5 C 81 % 1023,2 hPa 0,2 l/m 0,6 km/h W-SW 1,17 h 1,4 UV-I 152 W/m 3,3 km/h
25.05.2023 12,4 C 76 % 1026,6 hPa 0,0 l/m 0,6 km/h W-NW 1,25 h 1,6 UV-I 190 W/m 1,7 km/h
26.05.2023 13,2 C 66 % 1028,6 hPa 0,0 l/m 1,9 km/h W-NW 10,75 h 3,4 UV-I 435 W/m 11,0 km/h
27.05.2023 16,6 C 60 % 1024,0 hPa 0,0 l/m 1,0 km/h NO 12,50 h 3,5 UV-I 438 W/m 4,5 km/h
28.05.2023 19,6 C 51 % 1019,4 hPa 0,0 l/m 0,9 km/h NO 13,17 h 3,7 UV-I 454 W/m 6,1 km/h
29.05.2023 15,8 C 58 % 1023,0 hPa 0,0 l/m 0,9 km/h W-NW 12,92 h 3,6 UV-I 445 W/m 5,3 km/h
30.05.2023 14,8 C 70 % 1025,3 hPa 0,0 l/m 0,8 km/h NO 6,75 h 3,3 UV-I 361 W/m 4,1 km/h
31.05.2023 19,7 C 54 % 1022,5 hPa 0,0 l/m 1,3 km/h NO 13,75 h 3,7 UV-I 444 W/m 6,5 km/h
01.06.2023 12,7 C 77 % 1020,1 hPa 0,0 l/m 1,7 km/h W-NW 0,00 h 1,9 UV-I 191 W/m 10,1 km/h
02.06.2023 15,0 C 63 % 1020,4 hPa 0,0 l/m 3,8 km/h O-NO 4,83 h 2,9 UV-I 321 W/m 16,6 km/h
03.06.2023 17,0 C 39 % 1021,0 hPa 0,0 l/m 2,8 km/h O-NO 13,42 h 3,7 UV-I 466 W/m 6,1 km/h
04.06.2023 18,7 C 41 % 1020,7 hPa 0,0 l/m 2,1 km/h NO 13,33 h 3,6 UV-I 455 W/m 4,1 km/h
05.06.2023 20,1 C 48 % 1019,1 hPa 0,0 l/m 1,2 km/h NO 12,75 h 3,5 UV-I 432 W/m 6,1 km/h
06.06.2023 20,2 C 58 % 1018,6 hPa 0,0 l/m 0,8 km/h NO 6,17 h 2,7 UV-I 311 W/m 3,3 km/h
07.06.2023 19,3 C 71 % 1018,1 hPa 0,4 l/m 0,9 km/h NO 4,50 h 2,5 UV-I 263 W/m 3,3 km/h
08.06.2023 21,4 C 64 % 1015,3 hPa 0,8 l/m 2,7 km/h NO 10,25 h 3,6 UV-I 402 W/m 8,1 km/h
09.06.2023 23,7 C 52 % 1014,3 hPa 0,0 l/m 1,9 km/h O-NO 10,50 h 3,4 UV-I 404 W/m 6,1 km/h
10.06.2023 21,8 C 62 % 1015,4 hPa 1,2 l/m 2,7 km/h O-NO 11,00 h 3,5 UV-I 415 W/m 9,3 km/h
11.06.2023 24,0 C 44 % 1016,4 hPa 0,0 l/m 3,8 km/h O-NO 12,67 h 3,7 UV-I 445 W/m 13,0 km/h
12.06.2023 23,3 C 41 % 1015,5 hPa 0,0 l/m 4,4 km/h O-NO 13,00 h 3,7 UV-I 449 W/m 13,8 km/h
13.06.2023 22,7 C 40 % 1013,6 hPa 0,0 l/m 3,2 km/h NO 13,00 h 3,7 UV-I 460 W/m 6,9 km/h
14.06.2023 20,4 C 50 % 1017,2 hPa 0,0 l/m 1,3 km/h O-NO 10,25 h 3,3 UV-I 406 W/m 7,7 km/h
15.06.2023 20,8 C 46 % 1018,1 hPa 0,0 l/m 1,6 km/h NO 9,92 h 3,5 UV-I 432 W/m 7,7 km/h
16.06.2023 21,4 C 47 % 1016,0 hPa 0,0 l/m 2,2 km/h W-SW 8,83 h 3,0 UV-I 362 W/m 6,9 km/h
17.06.2023 22,3 C 49 % 1013,8 hPa 0,0 l/m 2,2 km/h W 13,00 h 3,7 UV-I 450 W/m 5,7 km/h
18.06.2023 24,6 C 46 % 1011,6 hPa 0,0 l/m 1,3 km/h O-NO 9,83 h 3,5 UV-I 405 W/m 9,8 km/h
19.06.2023 24,8 C 52 % 1011,6 hPa 0,0 l/m 1,6 km/h W-SW 9,75 h 3,3 UV-I 365 W/m 6,1 km/h
20.06.2023 25,8 C 62 % 1010,0 hPa 3,0 l/m 0,8 km/h O 5,25 h 3,0 UV-I 312 W/m 4,9 km/h
21.06.2023 23,4 C 75 % 1016,3 hPa 0,2 l/m 1,6 km/h W-SW 7,25 h 2,9 UV-I 315 W/m 7,3 km/h
22.06.2023 21,8 C 83 % 1013,0 hPa 14,8 l/m 1,1 km/h NO 2,83 h 2,6 UV-I 199 W/m 8,9 km/h
23.06.2023 19,6 C 74 % 1020,9 hPa 43,8 l/m 3,0 km/h W 3,92 h 1,9 UV-I 193 W/m 11,0 km/h
24.06.2023 23,3 C 61 % 1022,4 hPa 0,0 l/m 0,9 km/h W-SW 12,75 h 3,8 UV-I 440 W/m 4,5 km/h
25.06.2023 26,0 C 56 % 1016,1 hPa 0,0 l/m 0,6 km/h O 12,17 h 3,8 UV-I 441 W/m 3,7 km/h
26.06.2023 22,3 C 52 % 1015,1 hPa 0,0 l/m 3,9 km/h W 6,92 h 2,8 UV-I 299 W/m 17,4 km/h
27.06.2023 19,2 C 57 % 1017,7 hPa 0,0 l/m 1,5 km/h W 7,67 h 2,7 UV-I 310 W/m 13,0 km/h
28.06.2023 19,2 C 67 % 1017,6 hPa 0,0 l/m 1,3 km/h W 8,25 h 3,6 UV-I 382 W/m 3,3 km/h
29.06.2023 21,2 C 74 % 1013,0 hPa 0,0 l/m 0,6 km/h W-SW 0,33 h 1,6 UV-I 148 W/m 2,5 km/h
30.06.2023 18,3 C 65 % 1011,4 hPa 3,6 l/m 1,8 km/h W 6,25 h 3,1 UV-I 311 W/m 9,8 km/h
01.07.2023 18,7 C 74 % 1004,6 hPa 0,2 l/m 4,5 km/h SW 0,50 h 1,4 UV-I 138 W/m 17,4 km/h
02.07.2023 18,4 C 61 % 1008,8 hPa 0,0 l/m 6,8 km/h W-SW 4,25 h 2,8 UV-I 292 W/m 13,8 km/h
03.07.2023 18,0 C 58 % 1009,5 hPa 0,0 l/m 3,5 km/h SW 3,33 h 2,3 UV-I 237 W/m 15,8 km/h
04.07.2023 19,3 C 58 % 1011,7 hPa 0,0 l/m 3,3 km/h SW 6,08 h 2,9 UV-I 343 W/m 11,8 km/h
05.07.2023 15,8 C 76 % 1010,6 hPa 5,8 l/m 6,1 km/h SW 3,17 h 2,7 UV-I 295 W/m 16,5 km/h
06.07.2023 19,8 C 54 % 1017,8 hPa 0,0 l/m 1,4 km/h W-SW 10,50 h 3,4 UV-I 405 W/m 5,3 km/h
07.07.2023 23,4 C 47 % 1019,3 hPa 0,0 l/m 0,8 km/h O-NO 13,58 h 4,0 UV-I 469 W/m 5,3 km/h
08.07.2023 26,9 C 41 % 1016,9 hPa 0,0 l/m 1,6 km/h O-NO 13,08 h 3,9 UV-I 455 W/m 11,8 km/h
09.07.2023 24,7 C 65 % 1017,1 hPa 2,8 l/m 1,3 km/h O 9,08 h 3,8 UV-I 395 W/m 6,5 km/h
10.07.2023 22,5 C 65 % 1019,3 hPa 0,0 l/m 3,3 km/h W 6,08 h 3,2 UV-I 298 W/m 7,3 km/h
11.07.2023 27,1 C 51 % 1010,0 hPa 0,0 l/m 1,8 km/h O 13,50 h 3,8 UV-I 448 W/m 8,6 km/h
12.07.2023 21,1 C 59 % 1011,0 hPa 0,6 l/m 6,3 km/h W-SW 8,92 h 3,6 UV-I 414 W/m 16,2 km/h
13.07.2023 18,1 C 70 % 1016,3 hPa 0,2 l/m 3,3 km/h SW 5,58 h 2,8 UV-I 292 W/m 11,3 km/h
14.07.2023 22,6 C 53 % 1012,4 hPa 0,0 l/m 0,6 km/h O 7,58 h 3,2 UV-I 356 W/m 1,3 km/h
15.07.2023 24,0 C 63 % 1006,6 hPa 0,0 l/m 1,3 km/h O-SO 4,25 h 1,7 UV-I 180 W/m 7,3 km/h
16.07.2023 22,2 C 50 % 1013,6 hPa 0,0 l/m 4,3 km/h SW 5,83 h 2,9 UV-I 332 W/m 12,6 km/h
17.07.2023 17,6 C 71 % 1018,8 hPa 1,6 l/m 5,4 km/h W-SW 7,83 h 3,5 UV-I 349 W/m 14,6 km/h
18.07.2023 20,8 C 52 % 1016,9 hPa 0,0 l/m 0,6 km/h W-SW 12,08 h 3,6 UV-I 433 W/m 3,3 km/h
19.07.2023 18,5 C 73 % 1012,3 hPa 0,0 l/m 2,2 km/h SW 4,00 h 2,4 UV-I 261 W/m 9,8 km/h
20.07.2023 18,6 C 64 % 1013,0 hPa 17,8 l/m 2,9 km/h W 8,25 h 3,6 UV-I 389 W/m 10,1 km/h
21.07.2023 16,8 C 74 % 1010,8 hPa 0,0 l/m 1,8 km/h W 4,92 h 2,7 UV-I 290 W/m 7,3 km/h
22.07.2023 19,0 C 58 % 1012,3 hPa 0,6 l/m 2,5 km/h SW 4,17 h 2,7 UV-I 280 W/m 7,7 km/h
23.07.2023 20,0 C 67 % 1006,8 hPa 0,4 l/m 5,9 km/h S-SW 1,08 h 1,7 UV-I 173 W/m 22,5 km/h
24.07.2023 19,3 C 80 % 1002,4 hPa 13,0 l/m 5,5 km/h SW 3,67 h 2,4 UV-I 239 W/m 15,0 km/h
25.07.2023 16,0 C 71 % 1006,5 hPa 1,4 l/m 1,1 km/h W 3,92 h 2,1 UV-I 227 W/m 9,8 km/h
26.07.2023 15,3 C 75 % 1012,1 hPa 4,6 l/m 4,3 km/h W-SW 7,42 h 3,1 UV-I 358 W/m 10,2 km/h
27.07.2023 16,8 C 89 % 1005,4 hPa 11,6 l/m 6,6 km/h SW 0,00 h 1,1 UV-I 89 W/m 19,4 km/h
28.07.2023 20,9 C 79 % 1007,0 hPa 0,0 l/m 1,8 km/h SW 4,00 h 2,6 UV-I 275 W/m 10,5 km/h
29.07.2023 19,2 C 82 % 1007,2 hPa 4,2 l/m 1,0 km/h W-SW 3,50 h 2,6 UV-I 250 W/m 5,3 km/h
30.07.2023 18,6 C 69 % 1011,0 hPa 1,2 l/m 2,5 km/h SW 4,17 h 2,3 UV-I 246 W/m 8,5 km/h
31.07.2023 17,7 C 84 % 1005,6 hPa 9,2 l/m 9,7 km/h SW 0,00 h 1,3 UV-I 105 W/m 20,6 km/h
01.08.2023 17,3 C 80 % 1000,0 hPa 18,4 l/m 7,1 km/h SW 3,67 h 2,6 UV-I 265 W/m 15,0 km/h
02.08.2023 18,4 C 78 % 993,6 hPa 2,6 l/m 8,0 km/h S-SW 3,50 h 2,0 UV-I 203 W/m 18,2 km/h
03.08.2023 16,9 C 86 % 1000,6 hPa 6,2 l/m 12,1 km/h SW 1,83 h 1,8 UV-I 168 W/m 27,5 km/h
04.08.2023 17,2 C 80 % 1013,2 hPa 0,8 l/m 0,8 km/h SW 3,83 h 2,5 UV-I 259 W/m 3,7 km/h
05.08.2023 16,5 C 83 % 1010,9 hPa 9,0 l/m 1,0 km/h O-NO 3,00 h 2,5 UV-I 250 W/m 4,1 km/h
06.08.2023 15,4 C 91 % 1005,3 hPa 21,4 l/m 4,1 km/h SW 2,75 h 2,5 UV-I 216 W/m 9,8 km/h
07.08.2023 14,7 C 76 % 1012,7 hPa 1,6 l/m 10,2 km/h W-SW 2,08 h 2,2 UV-I 192 W/m 21,8 km/h
08.08.2023 16,0 C 73 % 1011,9 hPa 0,8 l/m 7,3 km/h W-SW 4,92 h 2,8 UV-I 317 W/m 17,4 km/h
09.08.2023 16,7 C 70 % 1016,5 hPa 5,0 l/m 2,4 km/h W-SW 6,83 h 3,1 UV-I 360 W/m 5,7 km/h
10.08.2023 18,2 C 69 % 1020,9 hPa 0,0 l/m 0,6 km/h W 8,67 h 3,5 UV-I 389 W/m 3,3 km/h
11.08.2023 23,5 C 61 % 1018,9 hPa 0,0 l/m 0,6 km/h O 11,92 h 3,7 UV-I 416 W/m 2,9 km/h
12.08.2023 21,3 C 84 % 1015,7 hPa 15,0 l/m 1,1 km/h W-SW 3,33 h 2,4 UV-I 224 W/m 4,1 km/h
13.08.2023 20,7 C 68 % 1016,4 hPa 0,0 l/m 0,5 km/h SW 7,08 h 2,7 UV-I 298 W/m 0,9 km/h
14.08.2023 22,9 C 74 % 1013,8 hPa 1,4 l/m 0,6 km/h SW 5,67 h 2,7 UV-I 280 W/m 1,7 km/h
15.08.2023 21,3 C 87 % 1016,1 hPa 14,2 l/m 2,9 km/h W-SW 2,92 h 2,5 UV-I 216 W/m 7,8 km/h
16.08.2023 20,9 C 81 % 1019,1 hPa 0,2 l/m 0,5 km/h NO 4,75 h 2,7 UV-I 286 W/m 1,7 km/h
17.08.2023 18,2 C 91 % 1018,3 hPa 4,0 l/m 3,3 km/h NO 0,00 h 1,3 UV-I 105 W/m 9,8 km/h
18.08.2023 24,0 C 76 % 1015,2 hPa 0,0 l/m 3,0 km/h O-NO 9,58 h 3,6 UV-I 402 W/m 9,8 km/h
19.08.2023 25,3 C 74 % 1016,2 hPa 0,2 l/m 0,8 km/h O 3,92 h 2,3 UV-I 230 W/m 4,1 km/h
20.08.2023 23,7 C 73 % 1021,5 hPa 0,0 l/m 0,6 km/h W 4,92 h 2,7 UV-I 275 W/m 2,1 km/h
21.08.2023 23,1 C 63 % 1021,4 hPa 0,0 l/m 0,7 km/h NO 8,42 h 3,2 UV-I 349 W/m 4,1 km/h
22.08.2023 22,0 C 69 % 1019,5 hPa 0,0 l/m 0,5 km/h W 10,00 h 3,4 UV-I 410 W/m 3,2 km/h
23.08.2023 21,1 C 69 % 1018,9 hPa 0,0 l/m 0,7 km/h W 10,67 h 3,1 UV-I 372 W/m 4,8 km/h
24.08.2023 22,9 C 71 % 1012,9 hPa 0,0 l/m 0,7 km/h O-NO 5,83 h 2,9 UV-I 277 W/m 3,3 km/h
25.08.2023 19,9 C 88 % 1007,9 hPa 12,2 l/m 0,6 km/h O 3,67 h 1,6 UV-I 156 W/m 2,5 km/h
26.08.2023 18,8 C 64 % 1010,5 hPa 0,0 l/m 3,7 km/h SW 9,17 h 3,0 UV-I 378 W/m 13,0 km/h
27.08.2023 15,8 C 79 % 1009,2 hPa 0,2 l/m 0,6 km/h SW 2,58 h 1,7 UV-I 197 W/m 2,1 km/h
28.08.2023 16,8 C 72 % 1011,6 hPa 0,0 l/m 0,6 km/h S-SW 6,25 h 2,5 UV-I 298 W/m 1,7 km/h
29.08.2023 16,0 C 78 % 1010,2 hPa 0,0 l/m 0,8 km/h W 2,58 h 2,3 UV-I 224 W/m 3,3 km/h
30.08.2023 15,2 C 80 % 1006,1 hPa 9,6 l/m 1,4 km/h SW 3,00 h 2,2 UV-I 206 W/m 8,1 km/h
31.08.2023 13,7 C 85 % 1010,8 hPa 7,0 l/m 3,0 km/h SW 3,83 h 2,4 UV-I 228 W/m 9,4 km/h
01.09.2023 15,9 C 89 % 1013,9 hPa 2,2 l/m 0,8 km/h O 3,83 h 1,4 UV-I 168 W/m 3,7 km/h
02.09.2023 18,4 C 85 % 1021,1 hPa 0,0 l/m 0,5 km/h W 5,08 h 2,2 UV-I 245 W/m 1,3 km/h
03.09.2023 17,1 C 79 % 1027,7 hPa 0,0 l/m 0,6 km/h W-SW 7,50 h 3,0 UV-I 312 W/m 2,9 km/h
04.09.2023 19,8 C 71 % 1025,2 hPa 0,0 l/m 0,8 km/h O 10,67 h 3,2 UV-I 386 W/m 3,7 km/h
05.09.2023 22,9 C 64 % 1020,5 hPa 0,0 l/m 0,6 km/h O-NO 11,00 h 3,3 UV-I 388 W/m 2,9 km/h
06.09.2023 23,5 C 62 % 1020,4 hPa 0,0 l/m 1,0 km/h O 10,58 h 3,2 UV-I 385 W/m 4,1 km/h
07.09.2023 23,5 C 58 % 1019,4 hPa 0,0 l/m 1,3 km/h O 10,58 h 3,1 UV-I 389 W/m 10,5 km/h
08.09.2023 24,0 C 61 % 1017,0 hPa 0,0 l/m 0,5 km/h O-NO 10,58 h 3,1 UV-I 387 W/m 1,3 km/h
09.09.2023 23,6 C 63 % 1016,3 hPa 0,0 l/m 0,5 km/h N 10,42 h 3,1 UV-I 376 W/m 2,5 km/h
10.09.2023 22,8 C 73 % 1016,8 hPa 0,0 l/m 0,5 km/h NW 10,17 h 2,9 UV-I 353 W/m 0,5 km/h
11.09.2023 25,4 C 63 % 1012,1 hPa 0,0 l/m 0,5 km/h W-SW 9,67 h 2,9 UV-I 351 W/m 0,9 km/h
12.09.2023 21,0 C 81 % 1011,7 hPa 1,0 l/m 1,2 km/h W-NW 7,33 h 2,4 UV-I 294 W/m 5,7 km/h
13.09.2023 16,3 C 87 % 1017,3 hPa 22,0 l/m 3,2 km/h SW 1,25 h 1,4 UV-I 146 W/m 8,1 km/h
14.09.2023 14,2 C 76 % 1022,5 hPa 0,0 l/m 0,6 km/h W 7,92 h 2,5 UV-I 297 W/m 1,3 km/h
15.09.2023 17,0 C 75 % 1017,7 hPa 0,0 l/m 1,0 km/h O 10,25 h 2,8 UV-I 371 W/m 7,3 km/h
16.09.2023 20,8 C 75 % 1014,0 hPa 0,0 l/m 1,2 km/h O 8,67 h 2,7 UV-I 334 W/m 6,1 km/h
17.09.2023 22,9 C 73 % 1011,6 hPa 0,4 l/m 0,9 km/h O 5,58 h 2,6 UV-I 286 W/m 7,6 km/h
18.09.2023 21,4 C 72 % 1004,6 hPa 2,0 l/m 1,5 km/h S-SW 3,08 h 1,7 UV-I 192 W/m 14,2 km/h
19.09.2023 17,1 C 65 % 1010,0 hPa 0,0 l/m 2,3 km/h SW 4,83 h 2,2 UV-I 250 W/m 15,0 km/h
20.09.2023 19,8 C 67 % 1007,0 hPa 0,0 l/m 1,3 km/h S-SW 8,67 h 2,5 UV-I 315 W/m 5,7 km/h
21.09.2023 19,1 C 74 % 998,8 hPa 4,0 l/m 2,1 km/h O-SO 2,17 h 1,4 UV-I 151 W/m 14,2 km/h
22.09.2023 15,8 C 73 % 1002,8 hPa 0,8 l/m 0,6 km/h SW 4,83 h 2,2 UV-I 268 W/m 2,9 km/h
23.09.2023 14,0 C 80 % 1016,3 hPa 0,2 l/m 2,4 km/h SW 1,83 h 1,5 UV-I 169 W/m 11,8 km/h
24.09.2023 15,2 C 70 % 1025,3 hPa 0,0 l/m 0,6 km/h SO 9,67 h 2,6 UV-I 346 W/m 3,3 km/h
25.09.2023 15,8 C 68 % 1023,3 hPa 0,0 l/m 0,8 km/h O 9,17 h 2,3 UV-I 301 W/m 2,9 km/h
26.09.2023 18,0 C 71 % 1020,4 hPa 0,0 l/m 0,6 km/h O 8,58 h 2,5 UV-I 331 W/m 4,1 km/h
27.09.2023 18,5 C 73 % 1017,7 hPa 0,0 l/m 1,7 km/h O-SO 6,67 h 2,1 UV-I 260 W/m 10,5 km/h
28.09.2023 20,1 C 75 % 1016,7 hPa 0,0 l/m 0,6 km/h W-SW 8,17 h 2,2 UV-I 297 W/m 3,3 km/h
29.09.2023 19,0 C 80 % 1018,0 hPa 0,4 l/m 7,4 km/h W-SW 1,75 h 1,4 UV-I 154 W/m 20,2 km/h
30.09.2023 15,5 C 73 % 1025,5 hPa 0,0 l/m 0,6 km/h W 7,75 h 2,1 UV-I 296 W/m 2,1 km/h
01.10.2023 18,8 C 67 % 1022,4 hPa 0,0 l/m 1,4 km/h W-SW 5,67 h 2,3 UV-I 260 W/m 5,3 km/h
02.10.2023 20,9 C 70 % 1017,6 hPa 0,0 l/m 1,8 km/h O-SO 7,83 h 2,3 UV-I 272 W/m 9,4 km/h
03.10.2023 16,2 C 82 % 1015,7 hPa 9,4 l/m 9,4 km/h W-SW 0,00 h 0,9 UV-I 65 W/m 23,0 km/h
04.10.2023 14,4 C 76 % 1025,1 hPa 0,0 l/m 1,3 km/h SW 2,50 h 1,5 UV-I 178 W/m 8,1 km/h
05.10.2023 14,9 C 78 % 1024,1 hPa 0,0 l/m 2,6 km/h SW 0,25 h 1,4 UV-I 137 W/m 14,2 km/h
06.10.2023 16,2 C 69 % 1022,1 hPa 0,0 l/m 2,2 km/h SW 6,25 h 2,0 UV-I 241 W/m 13,4 km/h
07.10.2023 18,0 C 77 % 1019,4 hPa 0,0 l/m 7,0 km/h SW 2,17 h 1,7 UV-I 166 W/m 22,2 km/h
08.10.2023 13,0 C 81 % 1023,8 hPa 1,8 l/m 4,0 km/h O 2,83 h 1,5 UV-I 171 W/m 10,2 km/h
09.10.2023 16,9 C 86 % 1018,7 hPa 0,2 l/m 2,2 km/h W-SW 0,00 h 0,8 UV-I 65 W/m 10,5 km/h
10.10.2023 19,1 C 72 % 1017,3 hPa 0,0 l/m 0,6 km/h W-SW 5,75 h 1,8 UV-I 229 W/m 3,7 km/h
11.10.2023 21,0 C 55 % 1011,7 hPa 0,0 l/m 6,9 km/h SW 7,33 h 1,9 UV-I 241 W/m 15,8 km/h
12.10.2023 15,8 C 92 % 1013,0 hPa 9,6 l/m 2,0 km/h SW 0,00 h 0,7 UV-I 41 W/m 5,3 km/h
13.10.2023 20,8 C 69 % 1004,9 hPa 3,2 l/m 1,8 km/h S-SW 3,33 h 1,8 UV-I 178 W/m 7,7 km/h
14.10.2023 11,4 C 77 % 1012,0 hPa 9,6 l/m 3,3 km/h W-SW 2,92 h 1,6 UV-I 182 W/m 12,2 km/h
15.10.2023 7,3 C 83 % 1020,4 hPa 1,4 l/m 3,7 km/h W-SW 2,17 h 1,2 UV-I 142 W/m 15,4 km/h
16.10.2023 7,4 C 87 % 1021,8 hPa 0,0 l/m 0,5 km/h W 1,33 h 1,1 UV-I 132 W/m 0,5 km/h
17.10.2023 7,7 C 85 % 1019,0 hPa 0,0 l/m 0,6 km/h O 5,75 h 1,5 UV-I 225 W/m 3,7 km/h
18.10.2023 9,3 C 73 % 1006,0 hPa 0,2 l/m 3,5 km/h O-NO 4,83 h 1,4 UV-I 210 W/m 19,0 km/h
19.10.2023 14,3 C 88 % 992,4 hPa 5,6 l/m 0,6 km/h O-SO 1,00 h 1,3 UV-I 126 W/m 3,7 km/h
20.10.2023 12,4 C 92 % 982,8 hPa 4,4 l/m 1,2 km/h O-NO 0,00 h 0,6 UV-I 37 W/m 10,1 km/h
21.10.2023 14,4 C 74 % 996,5 hPa 2,6 l/m 1,2 km/h S-SO 2,67 h 1,4 UV-I 161 W/m 8,9 km/h
22.10.2023 12,9 C 79 % 1008,5 hPa 0,0 l/m 0,6 km/h SW 0,33 h 0,9 UV-I 98 W/m 2,1 km/h
23.10.2023 13,1 C 81 % 1010,6 hPa 0,0 l/m 2,6 km/h O-NO 4,00 h 1,3 UV-I 175 W/m 10,5 km/h
24.10.2023 11,8 C 85 % 1003,0 hPa 1,2 l/m 0,5 km/h O-SO 0,00 h 0,7 UV-I 66 W/m 1,7 km/h
25.10.2023 10,5 C 89 % 995,2 hPa 3,0 l/m 0,6 km/h O 1,92 h 1,1 UV-I 116 W/m 2,9 km/h
26.10.2023 9,0 C 94 % 994,7 hPa 1,0 l/m 0,5 km/h W-SW 0,00 h 0,7 UV-I 49 W/m 1,3 km/h
27.10.2023 10,5 C 94 % 993,2 hPa 9,4 l/m 0,6 km/h O 0,00 h 0,6 UV-I 53 W/m 2,1 km/h
28.10.2023 10,9 C 90 % 998,4 hPa 2,8 l/m 0,5 km/h SO 0,92 h 0,8 UV-I 90 W/m 1,3 km/h
29.10.2023 14,2 C 75 % 996,6 hPa 2,8 l/m 4,1 km/h S 0,83 h 1,0 UV-I 104 W/m 21,4 km/h
30.10.2023 13,5 C 82 % 998,0 hPa 2,0 l/m 0,6 km/h S-SO 3,25 h 1,4 UV-I 166 W/m 2,1 km/h
31.10.2023 10,6 C 89 % 1002,9 hPa 3,2 l/m 4,2 km/h SW 1,92 h 0,9 UV-I 102 W/m 18,2 km/h
01.11.2023 12,9 C 80 % 999,8 hPa 1,8 l/m 1,3 km/h S-SO 1,00 h 1,0 UV-I 100 W/m 8,9 km/h
02.11.2023 11,8 C 73 % 981,9 hPa 0,2 l/m 5,1 km/h O-SO 1,17 h 0,9 UV-I 84 W/m 21,9 km/h
03.11.2023 9,6 C 69 % 987,0 hPa 0,0 l/m 1,5 km/h SW 3,00 h 1,1 UV-I 143 W/m 14,2 km/h
04.11.2023 9,1 C 80 % 979,5 hPa 0,8 l/m 6,3 km/h SO 1,58 h 1,0 UV-I 111 W/m 24,3 km/h
05.11.2023 10,7 C 82 % 982,7 hPa 2,6 l/m 7,6 km/h SW 0,33 h 0,8 UV-I 68 W/m 27,8 km/h
06.11.2023 10,1 C 80 % 1002,8 hPa 1,4 l/m 2,3 km/h S-SW 0,42 h 0,8 UV-I 83 W/m 11,4 km/h
07.11.2023 9,5 C 81 % 1009,8 hPa 0,4 l/m 1,3 km/h S-SW 1,08 h 0,8 UV-I 91 W/m 11,8 km/h
08.11.2023 9,7 C 78 % 1010,3 hPa 3,0 l/m 1,4 km/h SW 1,25 h 0,8 UV-I 92 W/m 7,3 km/h
09.11.2023 10,1 C 79 % 1000,3 hPa 6,2 l/m 1,9 km/h S 0,00 h 0,6 UV-I 41 W/m 15,4 km/h
10.11.2023 8,6 C 77 % 997,6 hPa 1,2 l/m 1,7 km/h S 2,50 h 1,1 UV-I 129 W/m 9,3 km/h
11.11.2023 7,0 C 89 % 1004,2 hPa 4,4 l/m 3,2 km/h W-SW 0,00 h 0,6 UV-I 51 W/m 13,4 km/h
12.11.2023 5,9 C 82 % 1007,6 hPa 0,0 l/m 0,5 km/h O 0,92 h 0,9 UV-I 100 W/m 0,9 km/h
13.11.2023 9,8 C 85 % 1001,6 hPa 6,0 l/m 5,1 km/h W-SW 0,00 h 0,0 UV-I 24 W/m 14,6 km/h
14.11.2023 10,9 C 84 % 1001,1 hPa 5,6 l/m 9,9 km/h SW 0,67 h 0,9 UV-I 76 W/m 18,2 km/h
15.11.2023 9,1 C 89 % 1013,3 hPa 10,6 l/m 3,4 km/h W-SW 0,00 h 0,6 UV-I 33 W/m 18,2 km/h
16.11.2023 6,4 C 87 % 1011,8 hPa 0,0 l/m 0,6 km/h W-SW 0,42 h 0,8 UV-I 71 W/m 2,9 km/h
17.11.2023 5,3 C 85 % 1021,3 hPa 0,0 l/m 0,6 km/h SW 2,33 h 0,8 UV-I 112 W/m 1,7 km/h
18.11.2023 5,5 C 88 % 1017,3 hPa 3,2 l/m 1,5 km/h O 1,00 h 0,8 UV-I 82 W/m 10,6 km/h
19.11.2023 11,1 C 88 % 1007,7 hPa 4,8 l/m 10,8 km/h W-SW 1,00 h 0,7 UV-I 78 W/m 25,0 km/h
20.11.2023 9,4 C 87 % 1008,3 hPa 1,2 l/m 4,5 km/h SW 1,58 h 0,8 UV-I 93 W/m 12,1 km/h
21.11.2023 6,7 C 91 % 1019,4 hPa 0,4 l/m 1,0 km/h NO 0,00 h 0,0 UV-I 21 W/m 2,9 km/h
22.11.2023 3,0 C 74 % 1027,6 hPa 0,0 l/m 0,5 km/h S-SW 5,33 h 0,8 UV-I 134 W/m 0,5 km/h
23.11.2023 9,5 C 94 % 1013,8 hPa 2,8 l/m 12,7 km/h W-SW 0,00 h 0,0 UV-I 14 W/m 29,1 km/h
24.11.2023 3,4 C 88 % 1005,3 hPa 5,2 l/m 6,7 km/h W 0,00 h 0,6 UV-I 42 W/m 21,0 km/h
25.11.2023 3,2 C 93 % 1010,3 hPa 1,2 l/m 3,9 km/h W-SW 0,00 h 0,6 UV-I 30 W/m 9,8 km/h
26.11.2023 4,5 C 94 % 1013,0 hPa 1,4 l/m 2,3 km/h W-SW 0,00 h 0,5 UV-I 32 W/m 12,1 km/h
27.11.2023 2,1 C 93 % 997,5 hPa 11,2 l/m 0,5 km/h O 0,00 h 0,0 UV-I 23 W/m 1,3 km/h
28.11.2023 -0,4 C 88 % 1004,7 hPa 0,4 l/m 0,9 km/h W-NW 0,50 h 0,8 UV-I 68 W/m 5,3 km/h
29.11.2023 1,4 C 88 % 1001,8 hPa 0,2 l/m 2,7 km/h SW 0,67 h 0,6 UV-I 45 W/m 10,1 km/h
30.11.2023 -0,6 C 89 % 1002,0 hPa 0,0 l/m 0,5 km/h O 3,08 h 0,8 UV-I 113 W/m 1,3 km/h
01.12.2023 -1,2 C 82 % 1007,6 hPa 0,0 l/m 0,5 km/h NO 0,00 h 0,0 UV-I 38 W/m 0,5 km/h
02.12.2023 -1,5 C 87 % 1014,8 hPa 0,4 l/m 0,6 km/h W-SW 0,00 h 0,5 UV-I 41 W/m 3,3 km/h
Min-Datum 21.01.23 15.06.23 05.11.23 168 Tage 01.01.23 - - - - 29.01.23
Min-Zeit 05:05 14:55 05:45 - 17:05 - - - - 06:30
Minimum -4,6 C 25 % 972,6 hPa - 0,5 km/h - - - - 0,0 km/h
Max-Datum 09.07.23 26.01.23 07.02.23 23.06.23 10.03.23 - 31.05.23 28.06.23 28.06.23 17.02.23
Max-Zeit 15:35 20:00 00:40 04:20 19:50 - 20:40 14:00 14:00 14:15
Maximum 34,8 C 96 % 1041,5 hPa 43,8 l/m 32,0 km/h
SW
- 13,67 h 8,4 UV-I 1179 W/m 60,0 km/h
W-SW
Durchschnitt 12,9 C 74 % 1014,2 hPa #724,6 l/m 3,7 km/h W-SW #1462:25 h 1,9 UV-I 214 W/m 10,4 km/h

Durchschnitt Minimum Temp.9,2 C
Durchschnitt Maximum Temp.16,4 C

Jahr Standard-Abweichung:   + 12,92 K
Jahr Normal Wert:    0,00 C
Eistage (Tmax < 0C) :2
Frosttage (Tmin < 0C) :29
Kalte Tage (Tmax < 10C) :77
Sommertage (Tmax >= 25C) :51
Heie Tage (Tmax >= 30C) :11

Regen Tage
> 0,0 l/m168
> 2,0 l/m89
> 20,0 l/m3
Jahr Standard-Abweichung:   + 724,6 l/m
Jahr Normal Wert:    0,0 l/m

VerteilungWindrichtung
Windstille40,4 %
N-NO1,2 %
NO6,4 %
O-NO8,0 %
O8,4 %
O-SO5,2 %
SO3,9 %
S-SO3,5 %
S4,5 %
S-SW8,5 %
SW16,2 %
W-SW16,7 %
W10,6 %
W-NW4,0 %
NW1,7 %
N-NW0,7 %
N0,4 %